Regional Weather Roundup
Issued by NWS

Home | Current Version | Previous Version | Graphics & Text | Print | Product List | Glossary On
Versions: 1 2 3 4 5 6 7 8 9 10 11 12 13 14 15 16 17 18 19 20 21 22 23 24 25 26 27 28 29 30 31 32 33 34 35 36 37 38 39 40 41 42 43 44 45 46 47 48 49 50
000
ASUS44 KMEG 210900
RWRTN
TENNESSEE HOURLY STATE WEATHER ROUNDUP
NATIONAL WEATHER SERVICE MEMPHIS TN
400 AM CDT THU AUG 21 2014

TNZ002-004-019-021-049-052-054-088>092-211000-
WEST TENNESSEE

CITY           SKY/WX    TMP DP  RH WIND       PRES   REMARKS
MEMPHIS INTL   PTCLDY    79  71  76 SW9       30.05R
NWS MEMPHIS      N/A     76 N/A N/A MISG        N/A
JACKSON        PTCLDY    74  70  87 S6        30.05R
DYERSBURG      PTCLDY    75  64  69 S3        30.05R
PARIS          CLEAR     70  68  94 CALM      30.05S
SAVANNAH       CLEAR     72  72 100 CALM      30.07S
$$

TNZ008-025-027-028-033-062-065-066-211000-
NORTH MIDDLE TENNESSEE

CITY           SKY/WX    TMP DP  RH WIND       PRES   REMARKS
NASHVILLE      CLEAR     71  69  93 CALM      30.07S
CLARKSVILLE    MOCLDY    70  69  97 S5        30.05S
COOKEVILLE     CLEAR     66  66 100 CALM      30.10S
CROSSVILLE     PTCLDY    67  62  84 CALM      30.15S
$$

TNZ061-075-076-078-094-096-097-211000-
SOUTH MIDDLE TENNESSEE

CITY           SKY/WX    TMP DP  RH WIND       PRES   REMARKS
SHELBYVILLE    CLEAR     70  70 100 CALM      30.10S
$$

TNZ017-018-042-046-047-211000-
NORTHEAST TENNESSEE

CITY           SKY/WX    TMP DP  RH WIND       PRES   REMARKS
TRI CITIES     MOCLDY    67  64  90 S3        30.14S FOG
$$

TNZ012-013-036-069-073-074-211000-
CENTRAL EAST TENNESSEE

CITY           SKY/WX    TMP DP  RH WIND       PRES   REMARKS
KNOXVILLE      FOG       64  64 100 CALM      30.11S VSB 1/4
OAK RIDGE      CLOUDY    66  65  96 CALM      30.12S
$$

TNZ083-085-099-211000-
SOUTHEAST TENNESSEE

CITY           SKY/WX    TMP DP  RH WIND       PRES   REMARKS
CHATTANOOGA    MOCLDY    71  68  90 CALM      30.10S
$$

SKY/WX REPORTED AS FAIR MEANS FEW OR NO CLOUDS BELOW
12 THOUSAND FEET.




USA.gov is the U.S. government's official web portal to all federal, state and local government web resources and services.